Showing default

NIMBUS 6, 7924

Orbit data source: Space-Track

NIMBUS 6, 7924 is a payload satellite owned by GSFC (US) in SSO that was launched on Thu, 12 Jun 1975 UTC via a DELTA 2910 launch vehicle from the Air Force Western Test Range (AFWTR). Payload-class satellites include a variety of spacecraft equipped with specific instruments for various scientific and technological missions. These include communications satellites like Starlink; space stations such as the ISS; scientific satellites like the Hubble; Earth observation satellites from companies like Planet Labs, Umbra, and HawkEye 360; GPS; miniature CubeSats for education and research; and military/defense satellites.

Loading next visibility...
Identifier
7924, 1975-052A
Orbit
SSO
Country
Flag of USUS
Related business
Manufacturer
GE/MSVD
Mission
Non-operational spacecraft
Bus & Motor
NIMBUS, Unknown motor
Mass
827 kg wet, 827 kg dry
Launch date (UTC)
1975-06-12 (51 years ago)
Launch vehicle
DELTA 2910
Launch site
Air Force Western Test Range (AFWTR)
Object type
Payload
Rocket body
Debris
Shape & HBR
Unknown
Radar Cross Section
Large (>1 m²)

Expand to show TLE details & history
Last TLE update: 7 hours ago

TLE from 7 hours ago
0 NIMBUS 6
1  7924U 75052A   25354.20547631 -.00000027  00000-0  32066-4 0  9999
2  7924 100.0094 263.5812 0007317 298.4232 227.4147 13.40815205472147
Epoch: 2025-12-20T04:55Z
TLE epoch observation values (Epoch: 2025-12-20T04:55:53.153Z)
Latitude
13.97414°
Longitude
-76.92148°
Altitude
1,111.987 km
Speed
7.296 km/s
True Right ascension
05h 44m 20s
True Declination
13° 53' 51"
Sunlit
Object was in full shadow at epoch
Visualization orbit readout
Latitude
Unknown
Longitude
Unknown
Altitude
Unknown
Speed
Unknown
Apparent Right ascension
Unknown
Apparent Declination
Unknown
Sunlit
N/A
Visualization observer readout
Local Sidereal Time
10:36:34
Azimuth
Unknown
Elevation
Unknown
Doppler factor
Unknown
Orbital elements
Apogee altitude
1,109.048 km
Perigee altitude
1,098.099 km
Semi-major axis
7,481.711 km
Eccentricity
0.00073
Inclination
100.0094°
RAAN
263.5812°
Arg. of periapsis
298.4232°
True anomaly
227.353°
Mean anomaly
227.4147°
Eccentric anomaly
227.38385°
Mean motion
3.35384 °/min
Orbital period
107.34 mins
BSTAR
0.000032066
Loading maneuver chart data...
Computing Atmospheric mass density...
Loading historical data...
Loading historical data...
Loading historical data...
Loading historical data...
Loading historical data...
Loading historical data...
Loading historical data...

Documentation

Showing up to 5 results
|